Location: London
(51.5074°N, 0.1278°W)
Time: 22:20:36
(UTC+01:00)

DELFI C3 - Pass Details

Date: 07 October 2020
Orbit: 535 x 549 km, 97.4° (Epoch: 22 October)

Event Time Altitude Azimuth Distance (km) Brightness Sun altitude
Exits shadow 19:14:23 12° 92° (E) 1,725 ? -8.7°
Maximum altitude 19:16:22 16° 59° (ENE) 1,490 ? -9.0°
Drops below altitude 10° 19:18:47 10° 22° (NNE) 1,834 ? -9.4°
Sets 19:21:35 0° 0° (N) 2,736 ? -9.8°
